Regional Weather Roundup
Issued by NWS

Home | Current Version | Previous Version | Text Only | Print | Product List | Glossary On
Versions: 1 2 3 4 5 6 7 8 9 10 11 12 13 14 15 16 17 18 19 20 21 22 23 24 25 26 27 28 29 30 31 32 33 34 35 36 37 38 39 40 41 42 43 44 45 46 47 48 49 50
000
ASUS45 KSLC 261610
RWRUT

UTAH REGIONAL WEATHER ROUNDUP
NATIONAL WEATHER SERVICE SALT LAKE CITY UT
1000 AM MDT THU MAY 26 2016

UTZ001>011-023>025-261700-

NORTHERN UTAH

CITY           SKY/WX    TMP DP  RH WIND       PRES   REMARKS
BRIGHAM CITY     N/A     58  41  54 CALM      30.02F
DUGWAY         MOSUNNY   60  42  52 W7        30.04S
HILL AFB       MOSUNNY   57  41  55 SE1       30.02F
LOGAN          SUNNY     52  43  71 CALM      30.04F
OGDEN          SUNNY     58  40  51 SW5       30.01F
PROVO AIRPORT  MOSUNNY   57  41  54 SW6       30.02F
SALT LAKE CITY MOSUNNY   61  45  55 W5        30.01F
VERNAL         SUNNY     61  37  41 VRB6      29.98F
WENDOVER       CLOUDY    61  36  39 NW7       30.04S
HEBER CITY     SUNNY     52  36  54 CALM      30.02F
WEST JORDAN    SUNNY     57  46  67 NW13      30.02F

$$

UTZ012>022-026-027-261700-

SOUTHERN/CENTRAL UTAH

CITY           SKY/WX    TMP DP  RH WIND       PRES   REMARKS
BLANDING       SUNNY     60  18  20 CALM      30.03S
BRYCE CANYON   MOSUNNY   46  32  58 VRB5      30.06R
CEDAR CITY     SUNNY     56  36  47 VRB5      30.02F
DELTA          SUNNY     55  41  58 CALM      30.02F
HANKSVILLE     MOSUNNY   68  28  22 CALM      29.91F
MILFORD        SUNNY     58  38  47 N13       30.02S
MOAB/CYNLANDS  MOSUNNY   70  26  19 E13       29.86F
PRICE          MOSUNNY   61  28  28 NE10      29.96F
ST GEORGE      SUNNY     66  34  30 W3        29.95S

$$

REGIONAL REPORTS     COLORADO/ARIZONA

CITY           SKY/WX    TMP DP  RH WIND       PRES   REMARKS
CRAIG, CO      SUNNY     50  35  56 SW3       30.01F
GRAND JUNCTION SUNNY     63  28  26 CALM      29.90F
RIFLE          SUNNY     58  26  29 CALM      29.94F
MONTROSE       MOSUNNY   62  27  26 VRB6      29.95F
CORTEZ         SUNNY     62  26  25 S13       29.97F
PAGE, AZ       PTSUNNY   66  28  24 SW8       29.92R
GRAND CANYON   MOSUNNY   55  27  34 VRB5      30.06S
KINGMAN        SUNNY     66  29  24 SW12      29.99S
FLAGSTAFF      MOSUNNY   50  23  34 W10       30.07R

$$

REGIONAL REPORTS    NEVADA/IDAHO/WYOMING

CITY           SKY/WX    TMP DP  RH WIND       PRES   REMARKS
LAS VEGAS, NV  MOSUNNY   70  35  27 CALM      29.91S
ELY            MOSUNNY   47  38  71 N5        30.10F
ELKO           MOSUNNY   51  43  74 SW7       30.10S
POCATELLO, ID  MOSUNNY   56  44  64 W7        30.05F
BURLEY         SUNNY     57  42  57 W9        30.04S
EVANSTON, WY     N/A     48  38  68 MISG      30.08F
ROCK SPRINGS   SUNNY     50  36  58 N5        30.06S
KEMMERER         N/A     48  32  53 SW3       30.09S

$$



USA.gov is the U.S. government's official web portal to all federal, state and local government web resources and services.